When you browse on this site, cookies collect data to enhance your experience and personalize the content and advertising you see.
Visit our Privacy Policy to learn more. By continuing to use the site, you agree to this use of cookies and data.

Hourly Weather Siguiri

Today, 8 July, Wednesday

Time Temperature Precipitation Wind Pressure Humidity
00:00 +25°C° 0.3 mm 2 mps 715 mmHg 84%
01:00 +25°C° 0.3 mm 2 mps 715 mmHg 84%
02:00 +25°C° 0 mm 2 mps 714 mmHg 85%
03:00 +24°C° 0 mm 2 mps 714 mmHg 85%
04:00 +24°C° 0 mm 2 mps 713 mmHg 86%
05:00 +24°C° 0 mm 2 mps 714 mmHg 85%
06:00 +24°C° 0 mm 2 mps 714 mmHg 84%
07:00 +25°C° 0 mm 3 mps 714 mmHg 84%
08:00 +26°C° 0 mm 3 mps 715 mmHg 77%
09:00 +28°C° 0 mm 3 mps 715 mmHg 69%
10:00 +30°C° 0 mm 3 mps 716 mmHg 62%
11:00 +33°C° 0 mm 3 mps 715 mmHg 55%
12:00 +35°C° 0 mm 3 mps 715 mmHg 47%
13:00 +36°C° 0 mm 2 mps 715 mmHg 39%
14:00 +37°C° 0 mm 2 mps 714 mmHg 38%
15:00 +37°C° 0 mm 3 mps 713 mmHg 37%
16:00 +37°C° 0 mm 3 mps 713 mmHg 35%
17:00 +36°C° 0 mm 2 mps 713 mmHg 40%
18:00 +33°C° 0 mm 1 mps 713 mmHg 44%
19:00 +31°C° 0 mm 1 mps 713 mmHg 48%
20:00 +31°C° 0 mm 1 mps 714 mmHg 53%
21:00 +30°C° 0 mm 2 mps 714 mmHg 58%
22:00 +29°C° 0 mm 2 mps 715 mmHg 63%
23:00 +28°C° 0 mm 2 mps 715 mmHg 67%

Tomorrow, 9 July, Thursday

Time Temperature Precipitation Wind Pressure Humidity
00:00 +28°C° 0 mm 2 mps 714 mmHg 70%
01:00 +27°C° 0 mm 3 mps 714 mmHg 74%
02:00 +27°C° 0 mm 3 mps 714 mmHg 74%
03:00 +27°C° 0 mm 3 mps 714 mmHg 74%
04:00 +27°C° 0 mm 3 mps 714 mmHg 74%
05:00 +27°C° 0 mm 3 mps 714 mmHg 75%
06:00 +27°C° 0 mm 2 mps 715 mmHg 75%
07:00 +27°C° 0 mm 2 mps 715 mmHg 75%
08:00 +29°C° 0 mm 3 mps 715 mmHg 69%
09:00 +30°C° 0 mm 3 mps 716 mmHg 63%
10:00 +33°C° 0 mm 3 mps 716 mmHg 57%
11:00 +34°C° 0.8 mm 3 mps 716 mmHg 54%
12:00 +35°C° 0.8 mm 3 mps 715 mmHg 51%
13:00 +35°C° 0.8 mm 2 mps 715 mmHg 48%
14:00 +35°C° 0.7 mm 3 mps 714 mmHg 51%
15:00 +34°C° 0.7 mm 4 mps 713 mmHg 54%
16:00 +33°C° 0.7 mm 4 mps 713 mmHg 57%
17:00 +32°C° 3.6 mm 5 mps 713 mmHg 66%
18:00 +29°C° 3.6 mm 5 mps 713 mmHg 74%
19:00 +27°C° 3.6 mm 5 mps 713 mmHg 82%
20:00 +25°C° 8.8 mm 5 mps 714 mmHg 84%
21:00 +23°C° 8.8 mm 5 mps 715 mmHg 87%
22:00 +22°C° 8.8 mm 5 mps 715 mmHg 89%
23:00 +22°C° 0.3 mm 4 mps 715 mmHg 87%

Day after tomorrow, 10 July, Friday

Time Temperature Precipitation Wind Pressure Humidity
00:00 +23°C° 0.3 mm 4 mps 715 mmHg 85%
01:00 +24°C° 0.3 mm 3 mps 715 mmHg 82%
02:00 +24°C° 0.1 mm 3 mps 714 mmHg 83%
03:00 +24°C° 0.1 mm 3 mps 714 mmHg 83%
04:00 +22°C° 0.1 mm 4 mps 713 mmHg 83%
05:00 +24°C° 0 mm 3 mps 713 mmHg 83%
06:00 +24°C° 0 mm 3 mps 714 mmHg 82%
07:00 +24°C° 0 mm 3 mps 714 mmHg 81%
08:00 +26°C° 0 mm 4 mps 714 mmHg 77%
09:00 +27°C° 0 mm 4 mps 715 mmHg 72%
10:00 +29°C° 0 mm 5 mps 715 mmHg 68%
11:00 +30°C° 0 mm 5 mps 715 mmHg 64%
12:00 +32°C° 0 mm 4 mps 715 mmHg 60%
13:00 +34°C° 0 mm 4 mps 714 mmHg 56%
14:00 +33°C° 0.5 mm 3 mps 714 mmHg 57%
15:00 +33°C° 0.5 mm 3 mps 713 mmHg 58%
16:00 +33°C° 0.5 mm 3 mps 713 mmHg 59%
17:00 +31°C° 0.9 mm 3 mps 713 mmHg 64%
18:00 +29°C° 0.9 mm 3 mps 713 mmHg 69%
19:00 +28°C° 0.9 mm 3 mps 713 mmHg 74%
20:00 +27°C° 0.9 mm 3 mps 713 mmHg 77%
21:00 +27°C° 0.9 mm 3 mps 714 mmHg 81%
22:00 +26°C° 0.9 mm 3 mps 715 mmHg 84%
23:00 +25°C° 2.9 mm 3 mps 714 mmHg 86%

11 July, Saturday

Time Temperature Precipitation Wind Pressure Humidity
00:00 +25°C° 2.9 mm 4 mps 714 mmHg 89%
01:00 +23°C° 2.9 mm 4 mps 714 mmHg 92%
02:00 +25°C° 1 mm 3 mps 714 mmHg 91%
03:00 +25°C° 1 mm 3 mps 714 mmHg 90%
04:00 +25°C° 1 mm 2 mps 714 mmHg 89%
05:00 +24°C° 0.4 mm 3 mps 715 mmHg 89%
06:00 +24°C° 0.4 mm 3 mps 715 mmHg 90%
07:00 +24°C° 0.4 mm 3 mps 715 mmHg 90%
08:00 +24°C° 0.2 mm 3 mps 716 mmHg 88%
09:00 +25°C° 0.2 mm 3 mps 716 mmHg 87%
10:00 +25°C° 0.2 mm 3 mps 717 mmHg 85%
11:00 +25°C° 0.9 mm 3 mps 716 mmHg 85%
12:00 +26°C° 0.9 mm 3 mps 716 mmHg 84%
13:00 +26°C° 0.9 mm 3 mps 716 mmHg 84%
14:00 +26°C° 0.1 mm 3 mps 715 mmHg 84%
15:00 +25°C° 0.1 mm 3 mps 715 mmHg 85%
16:00 +25°C° 0.1 mm 2 mps 714 mmHg 85%
17:00 +25°C° 0 mm 2 mps 714 mmHg 87%
18:00 +25°C° 0 mm 1 mps 714 mmHg 88%
19:00 +24°C° 0 mm 1 mps 715 mmHg 89%
20:00 +24°C° 0 mm 1 mps 715 mmHg 90%
21:00 +24°C° 0 mm 1 mps 715 mmHg 90%
22:00 +22°C° 0 mm 0 mps 715 mmHg 91%
23:00 +24°C° 0 mm 1 mps 715 mmHg 91%

12 July, Sunday

Time Temperature Precipitation Wind Pressure Humidity
00:00 +23°C° 0 mm 1 mps 715 mmHg 91%
01:00 +23°C° 0 mm 2 mps 715 mmHg 90%
02:00 +23°C° 0 mm 2 mps 715 mmHg 90%
03:00 +23°C° 0 mm 2 mps 715 mmHg 90%
04:00 +23°C° 0 mm 2 mps 715 mmHg 89%
05:00 +24°C° 0 mm 2 mps 715 mmHg 88%
06:00 +24°C° 0 mm 2 mps 715 mmHg 87%
07:00 +24°C° 0 mm 2 mps 715 mmHg 86%
08:00 +26°C° 0 mm 3 mps 716 mmHg 80%
09:00 +27°C° 0 mm 3 mps 716 mmHg 73%
10:00 +29°C° 0 mm 3 mps 717 mmHg 67%
11:00 +30°C° 0 mm 2 mps 716 mmHg 64%
12:00 +30°C° 0 mm 2 mps 716 mmHg 62%
13:00 +31°C° 0 mm 1 mps 716 mmHg 59%
14:00 +29°C° 0.8 mm 2 mps 715 mmHg 68%
15:00 +28°C° 0.8 mm 3 mps 714 mmHg 77%
16:00 +26°C° 0.8 mm 4 mps 714 mmHg 85%
17:00 +26°C° 0.7 mm 3 mps 714 mmHg 84%
18:00 +25°C° 0.7 mm 3 mps 714 mmHg 83%
19:00 +25°C° 0.7 mm 3 mps 714 mmHg 82%
20:00 +25°C° 0 mm 2 mps 715 mmHg 82%
21:00 +25°C° 0 mm 2 mps 715 mmHg 83%
22:00 +25°C° 0 mm 2 mps 716 mmHg 83%
23:00 +25°C° 0 mm 2 mps 715 mmHg 84%

13 July, Monday

Time Temperature Precipitation Wind Pressure Humidity
00:00 +25°C° 0 mm 2 mps 715 mmHg 85%
01:00 +24°C° 0 mm 2 mps 715 mmHg 85%
02:00 +24°C° 0 mm 2 mps 715 mmHg 86%
03:00 +24°C° 0 mm 2 mps 714 mmHg 87%
04:00 +24°C° 0 mm 2 mps 714 mmHg 88%
05:00 +24°C° 0.1 mm 2 mps 714 mmHg 87%
06:00 +24°C° 0.1 mm 3 mps 715 mmHg 86%
07:00 +24°C° 0.1 mm 3 mps 715 mmHg 85%
08:00 +26°C° 0 mm 4 mps 715 mmHg 80%
09:00 +27°C° 0 mm 5 mps 716 mmHg 74%
10:00 +29°C° 0 mm 5 mps 716 mmHg 68%
11:00 +30°C° 0.3 mm 5 mps 716 mmHg 66%
12:00 +32°C° 0.3 mm 5 mps 716 mmHg 63%
13:00 +33°C° 0.3 mm 5 mps 715 mmHg 60%
14:00 +33°C° 0.3 mm 4 mps 715 mmHg 60%
15:00 +33°C° 0.3 mm 3 mps 714 mmHg 60%
16:00 +33°C° 0.3 mm 3 mps 714 mmHg 59%
17:00 +30°C° 0.4 mm 3 mps 714 mmHg 65%
18:00 +29°C° 0.4 mm 3 mps 714 mmHg 71%
19:00 +28°C° 0.4 mm 3 mps 714 mmHg 77%
20:00 +27°C° 0 mm 3 mps 714 mmHg 79%
21:00 +27°C° 0 mm 4 mps 715 mmHg 80%
22:00 +26°C° 0 mm 4 mps 715 mmHg 82%
23:00 +25°C° 0.5 mm 4 mps 715 mmHg 83%
Show more